Covington, KY

8:17 PM EDT on April 19, 2018 (GMT -0400)
Cincinnati-Northern KY International

Weather History for KCVG - July, 2013

Change the Weather History Date:

Saturday, July 27, 2013

  Actual Average Record
Temperature  
Mean Temperature 70 °F 76 °F  
Max Temperature 76 °F 86 °F 101 °F (1936)
Min Temperature 63 °F 66 °F 49 °F (1962)
Degree Days  
Heating Degree Days 0 0  
Month to date heating degree days 0 0  
Since 1 June heating degree days 1 15  
Since 1 July heating degree days 0 0  
Cooling Degree Days 5 11  
Month to date cooling degree days 293 295  
Year to date cooling degree days 671 615  
Since 1 June cooling degree days 532 521  
Growing Degree Days 20 (Base 50)    
Moisture  
Dew Point 63 °F    
Average Humidity 77    
Maximum Humidity 100    
Minimum Humidity 54    
Precipitation  
Precipitation 0.32 in 0.12 in 4.07 in (1926)
Month to date precipitation 5.37 3.28  
Year to date precipitation 29.27 25.90  
Snow  
Snow 0.00 in 0.00 in - ()
Month to date snowfall 0.0 0.0  
Since 1 June snowfall 0.0 0.0  
Since 1 July snowfall 0.0 0.0  
Snow Depth 0.00 in    
Sea Level Pressure  
Sea Level Pressure 29.91 in    
Wind  
Wind Speed 7 mph (SW)    
Max Wind Speed 16 mph    
Max Gust Speed 22 mph    
Visibility 8 miles    
Events Rain    
T = Trace of Precipitation, MM = Missing Value Source: NWS Daily Summary

Daily Weather History Graph

Daily Weather History Graph

Search for Another Location

Airport or City:

Trip Planner

Search our weather history database for the weather conditions in past years. The results will help you decide how hot, cold, wet, or windy it might be!

Date:

Astronomy

Jul. 27, 2013 Rise Set
Actual Time 6:35 AM EDT 8:54 PM EDT
Civil Twilight 6:04 AM EDT 9:24 PM EDT
Nautical Twilight 5:27 AM EDT 10:01 PM EDT
Astronomical Twilight 4:46 AM EDT 10:42 PM EDT
Moon 11:45 PM EDT (7/27) 12:11 PM EDT (7/27)
Length of Visible Light 15h 19m
Length of Day
14h 19m
Waning Gibbous, 71% of the Moon is Illuminated
Jul 27
Waning Gibbous
Jul 29
Last Quarter
Aug 6
New
Aug 14
First Quarter
Aug 20
Full

Hourly Weather History & Observations

Time (EDT) Temp. Dew Point Humidity Pressure Visibility Wind Dir Wind Speed Gust Speed Precip Events Conditions
12:52 AM 68.0 °F 64.0 °F 87% 29.96 in 10.0 mi Calm Calm - N/A   Overcast
1:52 AM 69.1 °F 63.0 °F 81% 29.94 in 10.0 mi SW 4.6 mph - N/A   Overcast
2:52 AM 68.0 °F 66.0 °F 93% 29.94 in 4.0 mi SW 3.5 mph - 0.02 in Rain Light Rain
3:52 AM 66.0 °F 64.0 °F 93% 29.94 in 8.0 mi West 3.5 mph - 0.01 in   Overcast
4:52 AM 64.9 °F 64.0 °F 97% 29.93 in 7.0 mi SW 3.5 mph - N/A   Mostly Cloudy
5:52 AM 64.9 °F 64.0 °F 97% 29.91 in 7.0 mi Calm Calm - 0.00 in   Overcast
6:52 AM 64.9 °F 64.0 °F 97% 29.93 in 4.0 mi Calm Calm - 0.07 in Rain Light Rain
7:52 AM 64.0 °F 63.0 °F 96% 29.92 in 4.0 mi South 3.5 mph - 0.16 in Rain Rain
8:52 AM 64.0 °F 63.0 °F 96% 29.93 in 5.0 mi SSW 5.8 mph - 0.05 in   Light Drizzle
9:52 AM 66.0 °F 64.9 °F 96% 29.93 in 5.0 mi SSW 9.2 mph - 0.00 in   Overcast
10:38 AM 66.2 °F 64.4 °F 94% 29.94 in 2.5 mi SSW 9.2 mph - 0.00 in Rain Light Rain
10:45 AM 66.2 °F 66.2 °F 100% 29.94 in 1.8 mi SSW 8.1 mph - 0.01 in Rain Light Rain
10:49 AM 66.2 °F 66.2 °F 100% 29.94 in 2.0 mi SW 8.1 mph - 0.01 in Rain Light Rain
10:52 AM 66.0 °F 66.0 °F 100% 29.92 in 2.5 mi SW 8.1 mph - 0.01 in Rain Light Rain
11:04 AM 66.2 °F 66.2 °F 100% 29.94 in 8.0 mi SSW 8.1 mph - 0.00 in   Overcast
11:29 AM 66.2 °F 66.2 °F 100% 29.94 in 10.0 mi SW 9.2 mph - 0.00 in Rain Light Rain
11:49 AM 66.2 °F 66.2 °F 100% 29.93 in 9.0 mi SW 9.2 mph - 0.00 in   Overcast
11:52 AM 66.9 °F 64.9 °F 93% 29.91 in 9.0 mi SW 9.2 mph - 0.00 in   Overcast
12:52 PM 69.1 °F 66.9 °F 93% 29.91 in 8.0 mi SW 8.1 mph - 0.00 in   Overcast
1:22 PM 69.8 °F 66.2 °F 88% 29.93 in 9.0 mi WSW 8.1 mph 21.9 mph N/A   Overcast
1:52 PM 71.1 °F 66.9 °F 87% 29.90 in 10.0 mi WSW 11.5 mph - N/A   Mostly Cloudy
2:52 PM 72.0 °F 64.9 °F 78% 29.88 in 10.0 mi SW 12.7 mph - N/A   Mostly Cloudy
3:52 PM 73.0 °F 64.9 °F 76% 29.87 in 10.0 mi SW 8.1 mph - N/A   Overcast
4:52 PM 73.9 °F 66.0 °F 76% 29.85 in 10.0 mi SSW 10.4 mph - N/A   Mostly Cloudy
5:52 PM 73.0 °F 64.0 °F 73% 29.86 in 10.0 mi WSW 10.4 mph - 0.00 in   Mostly Cloudy
6:52 PM 75.0 °F 57.9 °F 55% 29.85 in 10.0 mi West 10.4 mph - N/A   Mostly Cloudy
7:52 PM 73.0 °F 57.0 °F 57% 29.86 in 10.0 mi West 6.9 mph - N/A   Scattered Clouds
8:52 PM 68.0 °F 57.9 °F 70% 29.88 in 10.0 mi West 5.8 mph - N/A   Scattered Clouds
9:52 PM 66.0 °F 57.9 °F 75% 29.89 in 10.0 mi West 4.6 mph - N/A   Partly Cloudy
10:52 PM 66.0 °F 57.9 °F 75% 29.90 in 10.0 mi WNW 8.1 mph - N/A   Partly Cloudy
11:52 PM 66.0 °F 55.9 °F 70% 29.91 in 10.0 mi WNW 9.2 mph - N/A   Partly Cloudy